[Date Prev][Date Next][Thread Prev][Thread Next][Date Index][Thread Index]

[jamsat-news:1643] jas2info #257



========================   最新情報   ==============================

        Last updated :28Dec.2001  19:30(JST)   #257

====================================================================
   
1)アマチュア通信衛星情報、FOシリーズの軌道要素、テレメトリ、QSOの
   状況等をまとめてみました.
   
 FO−29の2001年12月28日(土)の17:58(JST)のパスでは
JARLのホームページのとうりアナログ運用でした。 今日までの観測した
テレメトリーと最終の分析結果を報告しておきます。

AS26490C  28Dec2001
17:59-18:11(JST)
Freq. 435.802-.788MHz
AOS  36  88  142 LOS   Elev  13.0

HI HI AE 07 88 55 00 D4 71 FB 09 6F 58 24 00 88 88 87 92 81 92 90 94 95 92 
HI HI AE 07 88 55 00 D4 71 FB 09 6F 63 24 00 88 87 86 92 75 93 90 94 95 91 
HI HI AE 07 88 55 00 D4 71 FB 09 6F 6E 26 00 89 87 86 92 79 93 90 94 95 91 
HI HI AE 07 88 55 00 D4 71 FB 09 6F 78 2A 00 88 87 86 91 81 93 91 94 95 91 
HI HI AE 07 88 55 00 D4 71 FB 09 6F 82 31 00 87 87 86 91 90 93 91 94 96 91 
HI HI AE 07 88 55 00 D4 71 FB 09 6F 8B 39 06 83 87 86 91 7C 94 91 95 96 91 
HI HI AE 07 88 55 00 D4 71 FB 09 6F 92 43 4F 5F 8A 88 93 84 94 92 95 96 91 
HI HI AE 07 88 55 00 D4 71 FB 09 6F 97 4E 5C 59 8B 89 96 77 94 92 95 96 91 
HI HI AE 07 88 55 00 D4 71 FB 09 6F 9B 58 59 5A 8C 8A 96 96 94 92 95 96 92 
HI HI AE 07 88 55 00 D4 71 FB 09 6F 9C 64 57 5C 8D 8B 97 9F 95 92 96 97 91 
HI HI AE 07 88 55 00 D4 3B 3B 09 73 9C 6F 58 5B 8E 8C 99 74 95 93 96 97 91 
HI HI AE 07 88 55 00 D4 3B 3B 09 73 9A 7A 5B 5B 8F 8D 9A 61 95 93 96 97 92 
HI HI AE 07 88 55 00 D4 3B 3B 09 73 96 85 5D 58 8F 8D 9A 6B 95 93 96 97 92 
HI HI AE 07 88 55 00 D4 3B 3B 09 73 90 8F 60 57 90 8E 9B 70 96 93 96 98 92 
HI HI AE 07 88 55 00 D4 3B 3B 09 73 87 98 63 56 90 8E 9B 82 96 93 97 98 92 
HI HI AE 07 88 55 00 D4 3B 36 09 73 7D 9F 65 55 91 8F 9C 75 96 94 97 98 92

AS26477C   27Dec2001
18:54-19:09(JST)
Freq. 435.804-.786MHz
AOS  20 98 175 LOS  ELEV 42.4

HI HI AE 07 88 55 00 D4 1B FD 09 51 95 5F 00 88 88 87 92 6A 8D 8E 96 93 8F 
HI HI AE 07 88 55 00 D4 1B FD 09 51 99 5C 00 89 88 86 92 82 8D 8F 96 93 8F 
HI HI AE 07 88 55 00 D4 1B FD 09 51 9E 5C 00 8B 87 87 92 73 8E 8F 96 93 8F 
HI HI AE 07 88 55 00 D4 1B FD 09 51 A1 5E 00 87 87 86 92 7A 8E 8F 96 93 8F 
HI HI AE 07 88 55 00 D4 1B FD 09 51 A3 63 00 89 87 86 91 9B 8E 8F 97 93 8F 
HI HI AE 07 88 55 00 D4 1B FD 09 51 A5 69 00 88 86 86 91 78 8E 90 97 94 8F
HI HI AE 07 88 55 00 D4 1B FD 09 51 A4 72 01 86 87 86 91 5E 8F 90 97 94 8F 
HI HI AE 07 88 55 00 D4 1B FD 09 51 A2 7B 1D 78 88 86 93 67 8F 90 97 94 8F 
HI HI AE 07 88 55 00 D4 1B FD 09 51 9F 87 64 55 8B 89 96 77 8F 90 97 94 8F 
HI HI AE 07 88 55 00 D4 1B FD 09 51 99 90 61 56 8C 8A 97 76 8F 90 97 94 8F 
HI HI AE 07 88 55 00 D4 1B FD 09 51 92 98 60 56 8E 8B 98 78 90 91 97 94 8F 
HI HI AE 07 88 55 00 D4 1B FD 09 51 89 9F 5F 57 8F 8C 99 8B 90 91 98 95 8F 
HI HI AE 07 88 55 00 D4 1B FD 09 51 7F A2 5E 58 8F 8D 9A 6  90 91 98 95 8F 
HI HI AE 07 88 55 00 D4 1B FD 09 51 75 A2 5A 5A 8F 8D 9B 63 90 91 98 95 8F 
HI HI AE 07 88 55 00 D4 1B FD 09 51 6B 9F 5A 5A 90 8E 9A 79 91 91 98 95 8F 
HI HI AE 07 88 55 00 D4 1B FD 09 51 60 99 5B 5A 90 8E 9B 80 91 92 98 95 8F 
HI HI AE 07 88 55 00 D4 1B FD 09 51 57 90 5D 5B 90 8E 9B 7A 91 92 98 96 90 
HI HI AE 07 88 55 00 D4 1B FD 09 51 4F 85 5F 59 90 8E 9B 6F 91 92 99 96 90 
HI HI AE 07 88 55 00 D4 1B FD 09 51 49 78 60 57 91 8F 9C 7F 92 92 99 96 90 
HI HI AE 07 88 55 00 D4 1B FD 09 51 45 69 64 54 91 8F       92 92 99 86 90 

AS26463C  26Dec2001
18:08-18:16(JST)
Freq.435.797-.788MHz
AOS 34 89 145 LOS  ELE  14.7

HI HI AE 07 88 55 00 D4 00 00 09 00 4C 8D 5E 59 8C 89 96 79 99 94 8F 94 91 
HI HI AE 07 88 55 00 D4 00 00 09 00 4C 8D 5D 59 8C 8A 97 77 99 94 90 94 91 
HI HI AE 07 88 55 00 D4 00 00 09 00 4D 8D 5C 5A 8D 8B 98 85 99 95 90 94 91 
HI HI AE 07 88 55 00 D4 00 00 09 00 4E 8E 5B 5A 8E 8C 99 97 99 95 90 94 91 
HI HI AE 07 88 55 00 D4 0 
HI HI AE 07 88 55 00 D4 00 00 09 00 53 94 5D 59 8F 8D 9A 7E 9A 95 91 95 91 
HI HI AE 07 88 55 00 D4 00 00 09 00 55 96 60 58 90 8E 9B 72 9A 96 91 95 91 
HI HI AE 07 88 55 00 D4 00 00 09 00 58 99 64 57 91 8F 9B 83 9A 96 92 96 91 
HI HI AE 07 88 55 00 D4 00 00 09 00 

AS26450C  25Dec2001
18:59-19:13(JST)
Freq. 435.803-.785MHz

HI HI AE 07 88 55 00 D4 E9 16 09 02 8F 32 00 88 88 86 92 7A 93 8E 94 95 90 
HI HI AE 07 88 55 00 D4 E9 16 09 02 94 36 00 89 87 86 92 58 93 8E 94 96 90 
HI HI AE 07 88 55 00 D4 E9 16 09 02 98 3A 00 88 87 86 92 7C 93 8E 94 96 90 
HI HI AE 07 88 55 00 D4 E9 16 09 02 9A 3E 00 88 87 86 91 6F 93 8F 94 96 90 
HI HI AE 07 88 55 00 D4 E9 16 09 02 9A 40 00 88 87 86 91 84 93 8F 94 96 90 
HI HI AE 07 88 55 00 D4 E9 16 09 02 98 43 07 83 87 86 92 6C 94 8F 95 96 90 
HI HI AE 07 88 55 00 D4 E9 16 09 02 94 45 4B 61 89 88 94 71 94 8F 95 96 90 
HI HI AE 07 88 55 00 D4 E9 16 09 02 8F 46 54 5D 8B 89 95 6D 94 90 95 96 90 
HI HI AE 07 88 55 00 D4 E9 16 09 02 
HI HI AE 07 88 55 00 D4 E9 16 09 02 62 3E 61 57 90 8E 9B 6C 95 92 96 97 90 
HI HI AE 07 88 55 00 D4 E9 16 09 02 59 3E 65 55 91 8E 9B 8D 95 92 96 97 90 
HI HI AE 07 88 55 00 D4 E9 16 09 02 52 3E 68 56 91 8F 9C 63 95 92 97 97 90 
HI HI AE 07 88 55 00 D4 E9 16 09 02 4B 41 6B 51 91 8F 9C 69 95 9  77 97 90 
HI HI AE 07 88 55 00 D4 E9 16 09 02 46 45 6E 50 92 8F 9D 5B 95 93 97 97 90 
HI HI AE C7 88 55 00 D4 E9 16 09 02 45
------------------------ FO-29の軌道要素 ------------------------------        
 
  ■ 軌道要素1:「jamsat−keps:1062」より         
          SB KEPS @ AMSAT  $ORB01361.N
          2Line Orbital Elements 01361.AMSAT

HR AMSAT ORBITAL ELEMENTS FOR AMATEUR SATELLITES IN NASA FORMAT
FROM WA5QGD FORT WORTH,TX December 27, 2001
SEND SUBSCRIBE/UNSUBSCRIBE TO majordomo@amsat.org ONLY
BID: ORB01361.N

 DECODE 2-LINE ELSETS WITH THE FOLLOWING KEY:
 1 AAAAAU 00  0  0 BBBBB.BBBBBBBB  .CCCCCCCC  00000-0  00000-0 0  DDDZ
 2 AAAAA EEE.EEEE FFF.FFFF GGGGGGG HHH.HHHH III.IIII JJ.JJJJJJJJKKKKKZ
 KEY: A-CATALOGNUM B-EPOCHTIME C-DECAY D-ELSETNUM E-INCLINATION F-RAAN
 G-ECCENTRICITY H-ARGPERIGEE I-MNANOM J-MNMOTION K-ORBITNUM Z-CHECKSUM

FO-29
1 24278U 96046B   01361.08921452  .00000127  00000-0  16681-3 0  4664
2 24278  98.5147 199.8820 0350224 221.7187 135.6757 13.52808211264726

 ■ 軌道要素2:「jamsat−keps:1063」より
        SB KEPS @ AMSAT  $ORB01361.O
        Orbital Elements  01361.OSCAR

HR AMSAT ORBITAL ELEMENTS FOR OSCAR SATELLITES
FROM WA5QGD FORT WORTH,TX December 27, 2001
SEND SUBSCRIBE/UNSUBSCRIBE TO majordomo@amsat.org ONLY
BID: ORB01361.O
TO ALL RADIO AMATEURS BT

Satellite: FO-29
Catalog number: 24278
Epoch time:      01361.08921452
Element set:     466
Inclination:       98.5147 deg
RA of node:       199.8820 deg
Eccentricity:    0.0350224
Arg of perigee:   221.7187 deg
Mean anomaly:     135.6757 deg
Mean motion:   13.52808211 rev/day
Decay rate:       1.27e-06 rev/day^2
Epoch rev:           26472
Checksum:              313

-------------------  FO-29(JAS-2)のテレメトリに関する情報  ---------------------- 
 
2)上記12月28日(金)のテレメトリの最終行を分析しておきます.

AS26490C  28Dec2001
17:59-18:11(JST)
Freq. 435.802-.788MHz
AOS  36  88  142 LOS   Elev  13.0

HI HI AE 07 88 55 00 D4 3B 36 09 73 7D 9F 65 55 91 8F 9C 75 96 94 97 98 92

テレメトリ   内 容        換算数値 単 位
3C	磁気センサーZ軸=	61274.5	[nT]
3D	磁気センサX軸	=	77941.2	[nT]
4A	太陽電池発生電流=	 990.2	[mA]
4B	B充放電電流	= 	 -334.0	[mA]
4C	B端子電圧	=	   15.6	[V]
4D	B中間端子電圧	=	    6.9	[V]
5A	バス電圧	=	   15.3	[V]
5B	JTA送信電力	=	  662.4	[mW]
5C 	構体温度1	=	   23.6	[℃]
5D	構体温度2	=	   24.4	[℃]
6A	構体温度3	=	   23.2	[℃]
6B	構体温度4	=	   22.9	[℃]
6C	Bセル温度	=	   25.2	[℃]

 ========================== FO-29(ふじ3号)のテレメトリ分析、QSO情報等 =====================
   
 3)[jamsat-bb:10402] FO-29 status、[jamsat-bb:10376] Fo29cwt2 version up、
  [jamsat-bb:10550] FO-29 CW telemetry においてアマチュア通信衛星テレメトリ解析用ソフトを出しておられる
  脇田美根夫氏( JE9PEL/1)がテレメトリ解析グラフや新しく開発したソフトを紹介されてるので転載させて
  頂きます。

●[jamsat-bb:10402] FO-29 status

 "jas2info #253"(by JH6MME, Takayama氏) に掲載の、衛星FO-29 の CWテレメ
トリのうち、11月26日〜30日に受信された軌道の各データから10フレームずつ
を抜粋し、"Fo29cwt2プログラム" にかけてみました。 膨大な量の解析結果が
得られましたが、そのうち "太陽電池発生電流" 棒グラフのみを公開します。

受信:高山 秀造  JH6MME
解析:脇田美根夫 JE9PEL/1

   Data  1-10, 19:06-19:25(JST) 26Nov2001
   Data 11-20, 18:11-18:28(JST) 27Nov2001
   Data 21-30, 19:02-19:20(JST) 28Nov2001
   Data 31-40, 18:12-18:24(JST) 29Nov2001
   Data 41-50, 18:58-19:16(JST) 30Nov2001

Fo29cwt2.exe (Ver 2.43)
太陽電池発生電流 (# 50mA)

